map of MCZ home
MCZ - Airport
Location
City:  Maceió, Alagoas, Brazil
Name:Zumbi dos Palmares International Airport
Old (Alt.):Campo dos Palmares Airport
ICAO:SBMO
IATA:MCZ

Details
Type:Airport (Aerodrome, Airfield)
Use:Public/Civil, International (customs port of entry)
Latitude:9°30'39"S (-9.510807)
Longitude:35°47'30"W (-35.791677)
Datum:WGS 1984
Elevation:387 ft (118 m)
Variation:22.43°W (WMM2015v2 magnetic declination)
0.06° annual change
Runways:1
Longest:8537 × 148 ft (2602 × 45 m), paved

Time
Time Zone:UTC-3
Local Time:

Weather
METAR:SBMO 041400Z 08008KT 9999 BKN023 30/23 Q1013
TAF:SBMO 041000Z 0412/0512 11011KT 9999 BKN020 TX30/0416Z TN23/0508Z
BECMG 0415/0417 SCT025
BECMG 0500/0502 30005KT
RMK PFM

Related Locations
Nearby:
Farthest:GUM: 12154 mi / 19560 km
Agana [Antonio B. Won Pat Intl (Guam Intl)], GU, US

Find:

   beyond  
but within

Other Information
Maps:
NOTAMs:
Links:
Sources:

  
  • flag of Brazil
  • flag of Alagoas
  • flag of Maceió
  

Sectional Chart

Flight Planning
at skyvector.com

Satellite Image

Google Maps Satellite view

 

Copyright © 2004-2019 Karl L. Swartz. All rights reserved.
The Great Circle Mapper name and logo are trademarks of the Great Circle Mapper.
All other trademarks mentioned herein belong to their respective owners.
Please see credits for attibutions and further copyright information.

  Follow gcmap on Facebook Follow gcmap on Twitter GCmap on LinkedIn

hCard Microformat

Geo Microformat